TimeEDT,TemperatureF,Dew PointF,Humidity,Sea Level PressureIn,VisibilityMPH,Wind Direction,Wind SpeedMPH,Gust SpeedMPH,PrecipitationIn,Events,Conditions,WindDirDegrees,DateUTC
12:53 AM,53.1,51.1,93,29.74,6.0,Calm,Calm,-,N/A,,Clear,0,2013-05-16 04:53:00
1:53 AM,53.1,51.1,93,29.75,3.0,Calm,Calm,-,N/A,,Clear,0,2013-05-16 05:53:00
2:15 AM,53.6,51.8,94,29.75,2.0,Calm,Calm,-,N/A,,Clear,0,2013-05-16 06:15:00
2:27 AM,51.8,51.8,100,29.75,1.0,Calm,Calm,-,N/A,,Mist,0,2013-05-16 06:27:00
2:34 AM,51.8,51.8,100,29.75,0.5,Calm,Calm,-,N/A,Fog,Fog,0,2013-05-16 06:34:00
2:48 AM,51.8,50.0,94,29.75,1.2,Calm,Calm,-,N/A,,Partly Cloudy,0,2013-05-16 06:48:00
2:50 AM,51.8,50.0,94,29.75,2.5,Calm,Calm,-,N/A,,Partly Cloudy,0,2013-05-16 06:50:00
2:53 AM,51.1,50.0,96,29.74,3.0,Calm,Calm,-,N/A,,Partly Cloudy,0,2013-05-16 06:53:00
3:04 AM,51.8,50.0,94,29.75,1.8,Calm,Calm,-,N/A,,Clear,0,2013-05-16 07:04:00
3:07 AM,51.8,50.0,94,29.75,0.8,Calm,Calm,-,N/A,,Clear,0,2013-05-16 07:07:00
3:19 AM,51.8,50.0,94,29.75,1.8,Calm,Calm,-,N/A,,Clear,0,2013-05-16 07:19:00
3:26 AM,51.8,48.2,88,29.74,2.0,Calm,Calm,-,N/A,,Clear,0,2013-05-16 07:26:00
3:33 AM,51.8,48.2,88,29.74,3.0,Calm,Calm,-,N/A,,Partly Cloudy,0,2013-05-16 07:33:00
3:40 AM,50.0,48.2,94,29.74,1.8,Calm,Calm,-,N/A,,Clear,0,2013-05-16 07:40:00
3:43 AM,50.0,48.2,94,29.74,1.0,Calm,Calm,-,N/A,,Mist,0,2013-05-16 07:43:00
3:50 AM,50.0,48.2,94,29.75,0.8,WSW,3.5,-,N/A,,Mist,250,2013-05-16 07:50:00
3:53 AM,50.0,48.0,93,29.75,1.2,WSW,3.5,-,N/A,,Clear,240,2013-05-16 07:53:00
3:55 AM,50.0,48.2,94,29.75,2.0,WSW,3.5,-,N/A,,Partly Cloudy,250,2013-05-16 07:55:00
4:03 AM,50.0,48.2,94,29.75,3.0,Calm,Calm,-,N/A,,Scattered Clouds,0,2013-05-16 08:03:00
4:06 AM,50.0,48.2,94,29.75,1.0,Calm,Calm,-,N/A,,Mist,0,2013-05-16 08:06:00
4:13 AM,48.2,46.4,93,29.75,0.2,Calm,Calm,-,N/A,Fog,Fog,0,2013-05-16 08:13:00
4:31 AM,48.2,46.4,93,29.74,1.5,Calm,Calm,-,N/A,,Mostly Cloudy,0,2013-05-16 08:31:00
4:41 AM,48.2,48.2,100,29.75,1.2,Calm,Calm,-,N/A,,Scattered Clouds,0,2013-05-16 08:41:00
4:53 AM,48.0,46.9,96,29.75,0.8,Calm,Calm,-,0.01,,Mist,0,2013-05-16 08:53:00
5:32 AM,46.4,46.4,100,29.75,2.0,Calm,Calm,-,N/A,,Scattered Clouds,0,2013-05-16 09:32:00
5:34 AM,46.4,46.4,100,29.75,1.0,Calm,Calm,-,N/A,,Mist,0,2013-05-16 09:34:00
5:41 AM,46.4,44.6,93,29.75,0.2,Calm,Calm,-,N/A,Fog,Fog,0,2013-05-16 09:41:00
5:53 AM,46.9,45.0,93,29.75,0.5,Calm,Calm,-,N/A,Fog,Fog,0,2013-05-16 09:53:00
5:56 AM,46.4,44.6,93,29.76,2.0,Calm,Calm,-,N/A,,Scattered Clouds,0,2013-05-16 09:56:00
5:59 AM,46.4,44.6,93,29.76,1.0,SSW,3.5,-,N/A,,Mist,210,2013-05-16 09:59:00
6:06 AM,48.2,46.4,93,29.76,0.2,Calm,Calm,-,N/A,Fog,Fog,0,2013-05-16 10:06:00
6:30 AM,48.2,48.2,100,29.78,1.2,Calm,Calm,-,N/A,,Mostly Cloudy,0,2013-05-16 10:30:00
6:34 AM,48.2,48.2,100,29.78,1.5,Calm,Calm,-,N/A,,Scattered Clouds,0,2013-05-16 10:34:00
6:43 AM,48.2,48.2,100,29.79,3.0,Calm,Calm,-,N/A,,Partly Cloudy,0,2013-05-16 10:43:00
6:53 AM,50.0,48.9,96,29.79,4.0,Calm,Calm,-,N/A,,Clear,0,2013-05-16 10:53:00
7:53 AM,55.9,52.0,87,29.81,8.0,Calm,Calm,-,N/A,,Clear,0,2013-05-16 11:53:00
8:53 AM,61.0,55.9,83,29.81,10.0,Calm,Calm,-,N/A,,Clear,0,2013-05-16 12:53:00
9:53 AM,68.0,50.0,52,29.80,10.0,Calm,Calm,-,N/A,,Clear,0,2013-05-16 13:53:00
10:53 AM,72.0,48.9,44,29.79,10.0,SE,3.5,-,N/A,,Clear,130,2013-05-16 14:53:00
11:53 AM,75.9,44.1,32,29.77,10.0,NNW,4.6,-,N/A,,Clear,340,2013-05-16 15:53:00
12:53 PM,77.0,48.0,36,29.75,10.0,SSE,4.6,-,N/A,,Clear,150,2013-05-16 16:53:00
1:53 PM,80.1,43.0,27,29.74,10.0,SW,9.2,17.3,N/A,,Clear,220,2013-05-16 17:53:00
2:53 PM,82.0,42.1,24,29.73,10.0,West,9.2,-,N/A,,Partly Cloudy,280,2013-05-16 18:53:00
3:53 PM,82.0,43.0,25,29.73,10.0,Variable,5.8,-,N/A,,Clear,0,2013-05-16 19:53:00
4:53 PM,82.0,41.0,23,29.73,10.0,WNW,6.9,-,N/A,,Clear,290,2013-05-16 20:53:00
5:53 PM,81.0,39.0,22,29.72,10.0,Variable,6.9,17.3,N/A,,Clear,0,2013-05-16 21:53:00
6:53 PM,80.1,36.0,20,29.74,10.0,Variable,4.6,-,N/A,,Clear,0,2013-05-16 22:53:00
7:53 PM,75.0,37.0,25,29.76,10.0,Calm,Calm,-,0.00,Rain,Light Rain,0,2013-05-16 23:53:00
8:53 PM,69.1,37.0,31,29.79,10.0,Calm,Calm,-,0.00,,Clear,0,2013-05-17 00:53:00
9:53 PM,64.0,41.0,43,29.83,10.0,Calm,Calm,-,N/A,,Clear,0,2013-05-17 01:53:00
10:53 PM,68.0,36.0,31,29.83,10.0,NNW,4.6,-,N/A,,Clear,340,2013-05-17 02:53:00
11:53 PM,66.9,37.0,33,29.86,10.0,North,4.6,-,0.00,,Clear,360,2013-05-17 03:53:00